Location: Trebic
(49.2170°N, 15.8830°E)
Time: 07:57:14
(UTC+02:00)

ISS - Pass Details

Date: 27 March 2019
Orbit: 408 x 410 km, 51.6° (Epoch: 26 April)

Event Time Altitude Azimuth Distance (km) Brightness Sun altitude
Rises 20:08:06 0° 270° (W) 2,335 1.2 -17.8°
Reaches altitude 10° 20:10:13 10° 275° (W) 1,474 0.0 -18.1°
Maximum altitude 20:13:28 55° 354° (N) 496 -3.3 -18.6°
Enters shadow 20:14:15 42° 45° (NE) 594 -3.2 -18.7°
